Wind_Speed
20 22 24 25 27 29 30 31 32 32 32 33 34 35 37 36 37 36 29 31 30 26 30 29 30 36 42 42 39 36 39 37 34 27 27 32 31 31 31 30 22 21 20 17 18
19 21 23 24 25 27 29 31 33 34 35 34 34 34 36 38 41 38 38 38 33 31 29 30 29 30 35 40 44 43 41 35 30 23 30 28 36 40 33 31 25 20 18 19 20
20 22 24 26 27 28 28 29 29 31 33 35 36 36 36 36 39 44 40 41 39 35 34 31 31 29 29 32 40 45 44 36 35 28 40 29 41 40 33 34 27 24 20 20 21
25 28 30 31 31 31 32 31 31 30 31 32 32 36 38 37 38 37 41 44 42 40 38 35 34 33 31 29 30 41 45 40 38 33 43 43 40 41 37 34 31 30 24 24 23
27 29 31 32 34 35 35 35 36 36 35 32 32 33 36 39 34 39 39 46 45 43 41 39 39 36 35 31 30 34 38 41 42 41 44 43 46 45 38 35 32 35 27 27 22
30 32 32 34 36 36 37 37 39 39 38 38 38 37 36 36 35 38 40 40 47 46 44 42 41 39 38 36 33 28 29 39 45 47 47 44 47 45 44 39 36 35 32 30 25
32 35 34 35 37 38 39 39 41 43 43 43 43 42 38 34 36 37 40 37 41 48 48 46 45 45 41 38 36 32 28 31 42 49 48 46 47 45 43 43 39 38 37 35 32
36 38 38 38 40 42 42 44 47 45 45 47 48 46 43 39 38 39 39 41 41 44 49 50 49 48 45 43 39 37 33 30 33 46 48 48 46 44 42 44 42 41 41 41 39
42 42 41 41 43 44 45 49 49 47 43 48 49 50 51 47 45 42 42 42 41 44 48 51 52 49 49 46 44 42 37 32 29 35 44 48 46 41 40 45 46 44 44 44 43
44 45 42 44 47 49 48 50 50 48 50 49 53 52 52 55 51 45 45 44 45 46 47 50 52 52 53 52 49 43 40 36 32 31 37 44 47 41 38 36 50 48 46 47 45
46 44 45 47 47 49 49 52 54 55 56 55 56 59 59 56 58 52 49 49 49 50 50 47 52 56 52 49 43 36 32 39 30 28 34 35 43 43 38 39 49 50 50 48 47
43 44 47 47 49 50 54 58 59 58 57 59 61 63 67 66 61 54 50 51 52 51 51 51 52 45 47 46 46 44 40 35 31 35 38 32 37 42 41 44 46 49 53 50 48
43 45 48 49 53 57 59 59 60 62 61 69 69 55 48 56 69 58 54 52 50 54 55 52 43 45 48 47 49 48 47 42 39 41 39 34 35 38 42 43 41 47 47 51 50
44 47 50 53 56 59 61 62 61 62 66 61 43 30 24 30 39 52 54 51 54 53 54 52 45 47 48 48 49 48 47 45 42 44 43 38 36 33 37 44 39 46 53 46 53
46 48 52 54 59 60 62 61 61 64 60 37 31 20 12 15 27 48 51 50 53 52 57 55 51 50 48 49 48 46 44 46 45 45 43 28 39 29 27 39 41 44 44 53 54
48 50 52 57 60 62 61 59 60 60 38 32 26 16 14 18 26 34 44 48 51 54 53 54 42 52 50 49 47 43 43 49 46 45 46 42 40 31 28 29 34 38 42 51 56
50 53 56 58 61 62 59 58 60 55 47 28 18 17 18 8 17 23 30 46 54 56 56 55 46 52 54 51 47 50 47 46 44 44 53 41 36 31 33 41 34 34 33 46 54
53 56 58 60 60 58 56 58 56 54 40 27 19 17 16 3 8 23 34 47 51 55 56 41 49 53 54 53 53 55 55 48 51 49 43 28 35 35 42 42 35 37 47 55 53
54 56 57 56 56 55 56 55 54 51 41 24 19 17 21 7 3 11 25 37 43 51 52 45 32 39 50 51 52 54 56 47 29 30 30 35 37 41 45 45 41 36 39 44 40
54 55 56 56 56 55 54 52 51 48 37 28 19 19 25 25 10 6 16 27 40 45 49 51 42 34 37 51 53 49 46 39 39 33 39 37 37 40 50 45 39 39 37 39 43
55 56 56 55 54 52 49 49 49 46 38 27 22 21 24 28 29 23 14 19 31 40 48 50 47 43 34 49 51 51 50 51 41 36 34 34 34 35 46 46 43 39 38 36 38
54 54 57 55 51 49 46 47 47 43 37 27 22 21 24 28 29 29 23 15 20 32 38 42 54 44 31 41 49 41 40 45 42 43 39 33 32 44 52 41 42 41 38 38 36
55 55 53 50 48 48 47 45 45 40 35 29 24 21 22 29 30 29 30 29 22 21 28 39 43 54 46 32 50 51 47 49 50 40 38 40 37 40 42 43 42 39 37 38 37
55 53 50 48 48 46 45 44 42 38 34 28 22 22 20 24 33 31 30 31 35 29 22 33 40 46 54 52 45 56 60 59 59 58 54 41 46 45 44 43 42 43 40 37 38
55 53 50 47 45 44 43 43 41 35 34 30 25 23 21 21 27 34 28 32 34 37 35 30 39 46 52 55 51 53 64 63 61 60 45 41 38 54 50 51 50 44 42 41 39
53 52 48 45 44 44 43 42 41 37 33 31 28 25 26 23 22 26 34 30 31 35 38 40 36 41 49 56 55 51 60 62 65 63 62 55 36 46 61 57 52 49 47 45 44
52 50 47 45 43 44 43 43 42 37 34 32 31 26 28 28 27 25 27 31 31 33 36 37 42 41 43 49 54 56 55 61 60 64 64 61 59 49 56 56 57 56 52 50 50
Wind_Direction
324 320 314 309 304 300 296 293 288 285 283 283 282 278 268 260 256 257 255 255 259 256 258 256 252 247 241 239 236 235 235 237 232 235 236 244 235 232 229 233 229 231 220 249 219
328 326 321 317 314 311 307 302 297 290 285 280 277 277 276 268 259 254 251 253 254 253 255 255 254 252 247 241 238 236 236 236 232 236 238 235 234 238 232 234 228 229 216 248 216
333 330 326 320 315 310 309 306 300 295 293 287 279 274 273 273 268 256 253 251 250 248 247 250 250 253 253 244 240 238 236 235 234 227 233 227 235 237 233 233 226 228 215 235 217
336 333 330 327 324 318 312 306 302 301 296 289 286 279 273 270 271 270 252 251 248 245 245 246 247 248 253 252 245 242 238 234 231 233 238 232 236 236 231 230 226 226 213 226 221
325 323 323 323 320 318 316 314 309 304 296 291 291 283 277 272 272 268 261 247 245 244 242 242 243 245 245 249 246 244 240 234 234 235 239 231 232 233 230 230 225 227 212 226 227
323 322 320 319 319 320 318 314 312 307 302 297 291 285 282 276 271 267 263 256 245 243 241 239 240 243 242 244 245 246 240 232 232 236 240 234 232 231 230 228 221 230 221 227 226
321 320 318 318 320 320 317 313 314 306 301 300 296 287 282 278 271 263 262 261 251 241 239 238 236 237 238 240 242 241 240 237 231 235 238 238 235 232 229 227 222 220 220 219 227
321 320 318 318 320 322 319 317 313 308 302 299 295 289 281 278 272 265 258 254 255 243 237 236 234 233 234 236 237 242 240 239 236 236 236 239 237 235 229 229 225 221 221 220 221
322 323 320 321 321 321 318 315 314 311 303 301 294 287 281 276 269 265 257 251 248 245 236 233 232 230 232 233 235 237 243 244 242 244 238 238 238 238 230 229 227 223 221 219 222
322 323 321 321 322 322 320 317 317 313 308 299 294 284 276 274 269 260 254 249 243 241 236 231 228 227 228 228 230 236 239 241 242 241 242 237 236 235 229 226 229 226 222 219 222
323 324 323 324 323 323 325 326 322 316 311 302 295 284 276 269 261 256 248 243 238 235 234 231 231 228 230 231 231 232 238 237 238 236 248 240 238 232 228 218 232 225 223 222 219
325 326 325 326 327 328 328 327 325 319 316 305 297 291 275 262 255 247 240 236 235 232 231 230 229 229 229 230 229 227 228 231 227 239 244 248 242 236 226 225 232 230 228 224 219
326 327 327 327 329 329 330 329 327 324 319 314 308 296 277 256 241 235 234 232 230 228 227 230 231 231 226 223 225 224 230 231 232 238 243 240 244 239 228 228 228 228 231 227 225
327 328 330 333 334 334 333 332 328 328 329 322 299 293 297 264 236 221 224 225 225 223 224 225 225 231 226 225 225 224 228 228 229 233 240 240 245 245 236 231 220 225 225 227 223
327 331 334 337 339 337 337 335 332 335 331 315 299 298 315 282 235 215 210 216 218 218 218 218 220 227 224 225 224 225 226 227 230 232 233 231 238 232 252 232 221 229 227 230 231
327 333 336 338 339 341 339 336 338 342 336 307 305 288 270 254 247 218 210 212 212 214 215 211 219 219 221 223 219 217 220 226 225 227 230 228 239 238 228 235 221 225 226 223 229
329 332 335 337 339 341 339 339 344 346 341 326 304 284 269 327 246 222 209 210 209 212 214 211 208 220 221 219 216 215 214 223 223 222 229 229 226 223 216 223 217 206 216 227 223
330 333 334 337 340 341 342 343 349 349 342 323 311 268 256 276 230 235 208 215 213 215 215 211 212 218 218 216 218 219 219 218 224 225 228 213 228 223 228 233 233 231 233 231 217
332 333 336 339 339 341 341 346 349 352 346 323 297 272 250 276 29 200 237 222 221 218 216 210 204 230 222 217 218 220 222 223 222 226 227 225 219 219 239 235 235 234 235 236 228
331 333 335 337 338 339 346 344 351 353 347 331 305 282 252 256 237 218 207 231 223 221 219 215 196 197 229 217 217 220 223 211 204 217 220 221 228 234 238 240 236 232 233 235 227
332 333 335 336 338 342 342 344 351 353 347 337 312 285 269 256 268 273 243 216 225 229 226 219 205 199 198 218 215 214 218 213 212 221 219 215 233 235 240 235 233 232 232 233 231
332 333 335 336 337 339 339 345 349 351 348 338 327 292 274 267 273 277 264 254 234 226 231 233 218 200 210 221 208 202 227 219 210 217 210 211 219 226 244 238 234 234 233 234 231
331 333 334 334 334 337 339 342 347 348 345 337 328 317 282 275 271 272 271 262 254 236 227 227 231 224 216 222 223 216 208 202 210 212 220 215 228 232 240 242 231 230 231 232 229
330 332 332 333 334 336 337 341 345 345 340 333 319 313 305 278 274 272 269 267 263 252 234 223 217 223 224 224 221 214 215 215 214 210 215 210 230 231 233 236 233 230 233 232 229
331 331 331 331 331 332 334 336 341 340 335 331 320 307 300 293 277 274 267 263 262 259 251 230 217 214 218 224 225 226 223 218 219 223 211 210 237 234 230 231 233 229 229 229 228
330 329 327 328 329 328 331 334 337 336 331 323 318 308 299 293 288 272 270 264 255 258 254 246 236 221 210 216 222 227 225 227 224 222 219 210 215 236 229 231 233 231 229 230 229
328 327 327 326 327 327 330 331 334 333 326 318 313 307 294 291 285 281 274 268 257 252 254 252 246 238 223 218 213 220 227 227 225 224 223 219 217 228 233 228 231 233 232 232 232
Height
5787 5785 5783 5780 5779 5777 5774 5773 5771 5770 5769 5768 5767 5767 5767 5768 5768 5769 5773 5771 5771 5773 5772 5773 5775 5777 5780 5783 5786 5789 5789 5793 5799 5805 5807 5805 5810 5812 5815 5814 5819 5820 5822 5823 5823
5784 5782 5779 5776 5774 5771 5769 5767 5764 5762 5761 5760 5759 5759 5758 5759 5759 5761 5764 5763 5766 5767 5767 5767 5768 5770 5772 5775 5778 5780 5782 5789 5795 5801 5800 5802 5803 5802 5810 5812 5815 5817 5820 5820 5820
5780 5778 5775 5772 5769 5766 5763 5761 5758 5756 5754 5752 5751 5750 5749 5749 5750 5752 5755 5755 5758 5760 5761 5761 5762 5764 5765 5767 5770 5774 5776 5784 5787 5792 5789 5793 5796 5798 5805 5807 5811 5814 5816 5817 5818
5777 5774 5771 5767 5764 5760 5757 5755 5752 5749 5746 5744 5742 5741 5740 5740 5741 5742 5745 5745 5748 5750 5752 5754 5756 5757 5759 5760 5763 5764 5769 5775 5779 5782 5780 5786 5789 5792 5798 5802 5806 5808 5811 5814 5815
5773 5770 5766 5762 5758 5754 5751 5747 5744 5741 5738 5736 5734 5732 5730 5731 5734 5728 5732 5734 5737 5740 5744 5746 5748 5750 5752 5754 5755 5756 5762 5767 5770 5772 5772 5778 5781 5785 5791 5796 5801 5802 5807 5809 5812
5770 5766 5762 5757 5753 5749 5744 5740 5736 5732 5729 5726 5724 5723 5721 5722 5720 5719 5720 5723 5726 5730 5733 5736 5740 5743 5744 5746 5748 5751 5753 5757 5761 5763 5765 5770 5773 5780 5784 5789 5793 5798 5802 5805 5808
5765 5761 5757 5752 5747 5742 5738 5733 5728 5724 5719 5715 5712 5711 5711 5713 5708 5709 5709 5712 5714 5718 5721 5725 5729 5731 5737 5738 5741 5743 5746 5748 5752 5754 5757 5762 5765 5770 5779 5781 5786 5791 5796 5799 5802
5760 5755 5750 5745 5740 5735 5730 5725 5719 5715 5710 5705 5701 5697 5697 5698 5697 5698 5698 5700 5702 5705 5708 5712 5717 5722 5726 5729 5733 5735 5738 5741 5746 5745 5750 5753 5759 5765 5772 5774 5780 5784 5789 5793 5797
5753 5747 5742 5737 5732 5727 5721 5715 5709 5703 5698 5693 5688 5684 5683 5685 5684 5685 5686 5688 5690 5692 5694 5699 5704 5711 5715 5720 5723 5726 5731 5736 5739 5738 5741 5744 5752 5758 5766 5768 5772 5776 5781 5786 5790
5745 5740 5734 5729 5723 5717 5711 5704 5697 5692 5685 5678 5672 5670 5667 5665 5667 5670 5672 5674 5677 5679 5682 5687 5692 5697 5701 5707 5713 5721 5724 5728 5731 5733 5732 5737 5742 5749 5758 5763 5763 5768 5774 5778 5783
5738 5732 5726 5720 5713 5707 5700 5692 5686 5677 5670 5658 5653 5647 5644 5641 5645 5650 5654 5658 5661 5665 5670 5676 5677 5682 5693 5701 5710 5714 5717 5721 5726 5726 5726 5731 5733 5740 5749 5754 5755 5760 5765 5770 5776
5730 5724 5717 5710 5702 5694 5686 5677 5668 5659 5653 5638 5629 5621 5615 5614 5621 5628 5633 5641 5644 5653 5658 5660 5664 5680 5686 5691 5697 5703 5706 5713 5719 5718 5721 5724 5725 5731 5738 5742 5748 5753 5755 5762 5767
5722 5716 5708 5701 5692 5684 5674 5664 5652 5642 5629 5614 5600 5583 5575 5577 5587 5605 5613 5622 5630 5637 5643 5650 5666 5669 5672 5679 5684 5692 5697 5705 5710 5710 5714 5716 5717 5721 5728 5732 5739 5745 5749 5754 5759
5714 5707 5699 5691 5684 5673 5661 5650 5638 5625 5609 5592 5575 5570 5566 5561 5569 5582 5594 5606 5611 5623 5633 5640 5650 5654 5662 5668 5674 5681 5689 5695 5699 5701 5706 5709 5712 5712 5720 5723 5729 5734 5739 5744 5749
5707 5699 5689 5680 5672 5661 5650 5637 5624 5608 5594 5581 5570 5564 5563 5563 5560 5564 5577 5589 5601 5611 5616 5628 5635 5641 5650 5659 5666 5673 5679 5684 5689 5692 5696 5701 5703 5711 5711 5714 5720 5724 5730 5737 5740
5698 5690 5681 5671 5661 5651 5638 5626 5614 5600 5586 5574 5564 5559 5558 5556 5556 5566 5573 5582 5589 5595 5600 5614 5625 5629 5641 5649 5656 5664 5670 5671 5678 5682 5684 5694 5696 5703 5708 5707 5712 5717 5720 5725 5732
5689 5681 5672 5663 5654 5641 5630 5618 5605 5591 5576 5569 5563 5558 5556 5555 5555 5562 5569 5564 5571 5582 5593 5603 5610 5618 5626 5637 5646 5650 5656 5661 5667 5670 5674 5685 5688 5698 5693 5698 5703 5708 5716 5715 5723
5680 5671 5663 5654 5643 5633 5622 5607 5596 5583 5570 5563 5561 5558 5555 5552 5553 5556 5558 5560 5570 5577 5586 5594 5600 5606 5618 5627 5637 5640 5645 5652 5656 5663 5670 5678 5679 5688 5685 5690 5696 5697 5699 5701 5712
5672 5663 5654 5645 5635 5624 5614 5603 5593 5581 5570 5564 5560 5557 5555 5552 5551 5553 5556 5562 5568 5574 5582 5583 5596 5604 5607 5619 5626 5632 5633 5650 5659 5663 5667 5671 5669 5670 5675 5680 5685 5689 5693 5697 5707
5664 5655 5646 5637 5627 5618 5607 5599 5587 5577 5567 5560 5557 5554 5552 5551 5550 5551 5553 5557 5561 5566 5572 5578 5589 5595 5601 5606 5615 5622 5635 5639 5646 5650 5655 5662 5661 5661 5664 5671 5677 5681 5685 5689 5696
5655 5646 5638 5628 5619 5609 5603 5594 5582 5574 5565 5560 5554 5552 5550 5548 5548 5549 5550 5552 5555 5560 5564 5575 5579 5584 5589 5594 5608 5614 5617 5624 5638 5642 5649 5657 5659 5653 5652 5661 5667 5673 5677 5681 5686
5647 5639 5629 5621 5615 5605 5598 5588 5580 5570 5563 5557 5552 5549 5548 5546 5545 5545 5547 5548 5550 5553 5558 5563 5569 5575 5581 5586 5592 5598 5611 5619 5624 5632 5637 5649 5646 5640 5641 5653 5659 5663 5668 5672 5677
5639 5630 5621 5613 5606 5598 5590 5583 5576 5567 5560 5553 5549 5546 5543 5541 5543 5542 5542 5543 5546 5548 5551 5554 5558 5567 5573 5579 5587 5591 5593 5596 5607 5621 5628 5635 5634 5632 5636 5642 5648 5653 5658 5663 5668
5629 5621 5613 5605 5598 5590 5583 5577 5570 5562 5556 5550 5546 5542 5540 5538 5535 5536 5537 5538 5539 5541 5545 5547 5551 5554 5560 5563 5565 5573 5576 5585 5593 5602 5612 5622 5622 5623 5626 5631 5637 5643 5648 5654 5659
5620 5612 5603 5598 5591 5583 5577 5570 5564 5558 5551 5546 5542 5538 5536 5534 5531 5528 5531 5532 5532 5534 5536 5540 5542 5544 5548 5553 5557 5561 5568 5574 5584 5596 5603 5615 5613 5611 5616 5620 5627 5633 5638 5643 5649
5612 5604 5594 5587 5582 5575 5569 5563 5558 5551 5546 5540 5536 5533 5531 5528 5526 5523 5521 5523 5525 5526 5527 5529 5533 5536 5539 5541 5545 5550 5558 5566 5575 5578 5587 5595 5595 5588 5599 5609 5616 5622 5628 5633 5639
5603 5595 5587 5579 5573 5567 5561 5555 5550 5545 5540 5534 5529 5527 5524 5522 5519 5517 5514 5513 5516 5517 5518 5520 5522 5525 5530 5531 5534 5541 5546 5553 5560 5567 5574 5582 5582 5583 5590 5598 5603 5609 5616 5622 5627